Location: Bogis-Bossey
(46.3500°N, 6.1667°E)
Time: 18:00:13
(UTC+00:00)

MetOp-A - Pass Details

Date: 17 August 2022
Orbit: 529 x 809 km, 98.4° (Epoch: 30 September)

Event Time Altitude Azimuth Distance (km) Brightness Sun altitude
Rises 19:00:35 0° 147° (SSE) 3,285 6.8 -3.9°
Reaches altitude 10° 19:03:02 10° 142° (SE) 2,336 6.0 -4.3°
Maximum altitude 19:07:58 47° 70° (ENE) 995 4.4 -5.0°
Drops below altitude 10° 19:12:38 10° 357° (N) 2,210 6.8 -5.8°
Sets 19:14:53 0° 352° (N) 3,091 7.7 -6.1°
